Regional Weather Roundup
Issued by NWS

Home | Current Version | Previous Version | Text Only | Print | Product List | Glossary On
Versions: 1 2 3 4 5 6 7 8 9 10 11 12 13 14 15 16 17 18 19 20 21 22 23 24 25 26 27 28 29 30 31 32 33 34 35 36 37 38 39 40 41 42 43 44 45 46 47 48 49 50
000
ASUS44 KBMX 201410
RWRAL

ALABAMA REGIONAL WEATHER ROUNDUP
NATIONAL WEATHER SERVICE BIRMINGHAM AL
800 AM CST MON FEB 20 2017

NOTE: "FAIR" INDICATES FEW OR NO CLOUDS BELOW 12,000 FEET
WITH NO SIGNIFICANT WEATHER AND/OR OBSTRUCTIONS TO VISIBILITY.

THE REMARK "TC" DENOTES TEMPERATURE IN DEGREES CELSIUS.

ALZ001>011-014-016>018-020-201500-
NORTH ALABAMA

CITY           SKY/WX    TMP DP  RH WIND       PRES   REMARKS
MUSCLE SHOALS  MOSUNNY   54  50  86 E8        30.16R
HUNTSVILLE     CLOUDY    54  51  90 E5        30.17R
DECATUR        MOSUNNY   52  50  93 E6        30.17R
HALEYVILLE     FAIR      56  49  77 SE7       30.17R
GADSDEN        MOSUNNY   48  47  96 CALM      30.21R
$$

ALZ012-013-022-023-030>036-040>044-201500-
WEST CENTRAL ALABAMA

CITY           SKY/WX    TMP DP  RH WIND       PRES   REMARKS
TUSCALOOSA     MOSUNNY   55  51  86 NE5       30.15R
$$

ALZ015-024>027-033>036-040>044-201500-
CENTRAL ALABAMA

CITY           SKY/WX    TMP DP  RH WIND       PRES   REMARKS
BIRMINGHAM     CLOUDY    57  49  74 NE6       30.20R
MONTGOMERY     CLOUDY    53  48  83 E6        30.16S
SHELBY CO ARPT CLOUDY    56  51  84 NE5       30.18R
MAXWELL AFB    CLOUDY    52  51  94 NE6       30.15S
GREENVILLE     FAIR      57  49  74 SE3       30.13S
$$

ALZ019-021-028-029-037-038-045>048-201500-
EAST CENTRAL ALABAMA

CITY           SKY/WX    TMP DP  RH WIND       PRES   REMARKS
ANNISTON       CLOUDY    50  47  89 E3        30.19R
ALEXANDER CITY MOSUNNY   50  47  90 N5        30.19R
AUBURN         CLOUDY    57  48  72 E5        30.19R
$$

ALZ051>064-201500-
SOUTHWEST ALABAMA

CITY           SKY/WX    TMP DP  RH WIND       PRES   REMARKS
MOBILE         PTSUNNY   63  61  93 S5        30.12R
BROOKLEY FIELD MOSUNNY   64  61  90 E6        30.12R
EVERGREEN      SUNNY     55  51  86 CALM      30.12S
$$

ALZ049-050-065>069-201500-
SOUTHEAST ALABAMA

CITY           SKY/WX    TMP DP  RH WIND       PRES   REMARKS
DOTHAN         CLOUDY    58  53  84 E5        30.20R
OZARK          MOSUNNY   56  52  85 NE3       30.16R
TROY           MOSUNNY   51  50  96 CALM      30.17R
EUFAULA        FAIR      56  52  86 CALM      30.18R
$$



USA.gov is the U.S. government's official web portal to all federal, state and local government web resources and services.